Weather Roundup
Issued by NWS

Home | Current Version | Previous Version | Text Only | Print | Product List | Glossary On
Versions: 1 2 3 4 5 6 7 8 9 10 11 12 13 14 15 16 17 18 19 20 21 22 23 24 25 26 27 28 29 30 31 32 33 34 35 36 37 38 39 40 41 42 43 44 45 46 47 48 49 50
140
NZUS93 KARX 132210
HRRWXR

CURRENT HOURLY OBSERVATIONS ACROSS
MUCH OF THE UPPER MISSISSIPPI VALLEY
NATIONAL WEATHER SERVICE LA CROSSE WI
400 PM CST FRI DEC 13 2019


...SOUTHEAST MINNESOTA...


CITY           SKY/WX    TMP DP  RH WIND       PRES   REMARKS
ROCHESTER      CLOUDY    23  19  85 S8        29.80S FOG     WCI  14
ROCHESTER/MAYO CLOUDY    24  21  87 S5        29.82R WCI  19
WINONA         MIX PCPN  23  21  93 SE5       29.85F WCI  17
AUSTIN         CLOUDY    27  23  86 SW6       29.81S FOG     WCI  20
ALBERT LEA     CLOUDY    21  19  93 SW6       29.81S FOG     WCI  14
DODGE CENTER   CLOUDY    21  18  86 S7        29.80R FOG     WCI  13
PRESTON        CLOUDY    24  21  89 S5        29.81R FOG     WCI  18
OWATONNA       FAIR      19  18  93 SW5       29.81S FOG     WCI  13
$$

...ELSEWHERE IN MINNESOTA...


CITY           SKY/WX    TMP DP  RH WIND       PRES   REMARKS
MINNEAPOLIS    CLOUDY    18  11  74 VRB5      29.84R FOG     WCI  11
INTNL FALLS    CLOUDY    19  14  81 E5        29.81R WCI  12
DULUTH         LGT SNOW  17  12  80 S3        29.80S
RED WING       CLOUDY    19  16  86 CALM      29.84R FOG
REDWOOD FALLS  CLOUDY    22  18  85 SW3       29.82R
MANKATO        CLOUDY    19  16  88 W7        29.84R FOG     WCI  10
WORTHINGTON    LGT SNOW  21  21 100 W13       29.81R VSB 3/4 WCI   9
FAIRMONT       CLOUDY    20  17  88 W12       29.84R WCI   8
$$

...SOUTHWEST WISCONSIN...


CITY           SKY/WX    TMP DP  RH WIND       PRES   REMARKS
LA CROSSE      SNOW      27  22  81 SE3       29.84F VSB 1/2
PRAIRIE DU CHI MOCLDY    30  24  78 E3        29.84F
BOSCOBEL       CLOUDY    32  25  75 CALM      29.86F HAZE
LONE ROCK      CLOUDY    31  26  82 E5        29.85F HAZE    WCI  26
PLATTEVILLE    FAIR      30  29  98 CALM      29.84F
FORT MC COY    CLOUDY    27  24  88 SE3       29.85F FOG
MAUSTON-NEW LI CLOUDY    28  25  89 CALM      29.84F FOG
VIROQUA        CLOUDY    27  27 100 SE7       29.81F WCI  19
WIS DELLS      CLOUDY    27  25  91 CALM      29.85S FOG
$$

...ELSEWHERE IN WISCONSIN...


CITY           SKY/WX    TMP DP  RH WIND       PRES   REMARKS
MILWAUKEE      CLOUDY    34  29  82 NE5       29.86S HAZE    WCI  30
MADISON        CLOUDY    31  27  85 S3        29.86R FOG
GREEN BAY      CLOUDY    27  20  75 CALM      29.88R
EAU CLAIRE     SNOW      22  18  85 CALM      29.83S VSB 1/4
BLACK RVR FLS  LGT SNOW  27  23  84 CALM      29.84S
MEDFORD        LGT SNOW  20  15  81 S3        29.81S
WAUSAU         MOCLDY    23  17  78 CALM      29.81S HAZE
WIS RAPIDS     MOCLDY    25  19  78 CALM      29.85F HAZE
MARSHFIELD     CLOUDY    24  17  74 E3        29.81F HAZE
RICE LAKE      LGT SNOW  19   1  47 CALM      29.83S VSB 3/4
$$

...NORTHEAST IOWA...


CITY           SKY/WX    TMP DP  RH WIND       PRES   REMARKS
WATERLOO       CLOUDY    29  23  78 CALM      29.84R HAZE
DUBUQUE        CLOUDY    32  26  78 CALM      29.84S
DECORAH        MOCLDY    27  25  93 S3        29.81S FOG
MASON CITY     PTCLDY    25  21  85 SW6       29.83R FOG     WCI  18
CHARLES CITY   CLOUDY    27  25  93 S8        29.82S FOG     WCI  18
OELWEIN        CLOUDY    28  28 100 S8        29.83S WCI  20
$$

...ELSEWHERE IN IOWA...


CITY           SKY/WX    TMP DP  RH WIND       PRES   REMARKS
DES MOINES     MOCLDY    31  24  75 N3        29.82S
IOWA CITY      MOCLDY    32  27  81 SE3       29.86F
FORT DODGE     PTCLDY    28  24  85 SW3       29.82R
MARSHALLTOWN   CLOUDY    30  27  88 CALM      29.82R
CEDAR RAPIDS   MOCLDY    30  27  88 E5        29.82F FOG     WCI  25
$$

...NORTHERN ILLINOIS...


CITY           SKY/WX    TMP DP  RH WIND       PRES   REMARKS
CHICAGO-OHARE  FAIR      43  30  60 SW5       29.84F
CHICAGO-MIDWAY FAIR      43  28  55 SW6       29.85F
MOLINE         FAIR      36  29  75 N5        29.85F HAZE    WCI  32
ROCKFORD       MOCLDY    37  29  72 W3        29.88R
PEORIA         FAIR      45  29  53 S5        29.84R
$$

NOTE: "FAIR" INDICATES FEW OR NO CLOUDS BELOW 12,000 FEET WITH NO
SIGNIFICANT WEATHER AND/OR OBSTRUCTIONS TO VISIBILITY. WIND
SPEEDS ARE IN MILES-PER-HOUR.




USA.gov is the U.S. government's official web portal to all federal, state and local government web resources and services.